• In Deutschland
  • Länderverzeichnis
  • Für 7 Tage
  • Wassertemperatur
  • Satellitenkarten
  • Wetterkarte
  • Widgets
  • user-avatar
    Anmelden

    Stündliche Wetter Hepo

    Heute, 22 Juli, Sonntag

    Zeit Temperatur Niederschläge Wind Luftdruck Luftfeuchtigkeit
    00:00 +28°C° 0,4 mm 1 m/S 746 mmHg 88%
    01:00 +28°C° 0,4 mm 1 m/S 746 mmHg 89%
    02:00 +28°C° 0 mm 1 m/S 746 mmHg 90%
    03:00 +28°C° 0,2 mm 1 m/S 745 mmHg 90%
    04:00 +28°C° 0,2 mm 1 m/S 745 mmHg 89%
    05:00 +28°C° 0,2 mm 1 m/S 745 mmHg 89%
    06:00 +29°C° 0,3 mm 1 m/S 745 mmHg 84%
    07:00 +30°C° 0,3 mm 1 m/S 746 mmHg 80%
    08:00 +31°C° 0,3 mm 1 m/S 746 mmHg 76%
    09:00 +33°C° 0,9 mm 1 m/S 746 mmHg 69%
    10:00 +34°C° 0,9 mm 1 m/S 746 mmHg 63%
    11:00 +37°C° 0,9 mm 2 m/S 746 mmHg 57%
    12:00 +37°C° 0,1 mm 2 m/S 746 mmHg 54%
    13:00 +38°C° 0,1 mm 3 m/S 745 mmHg 52%
    14:00 +38°C° 0,1 mm 3 m/S 745 mmHg 49%
    15:00 +37°C° 0,3 mm 3 m/S 745 mmHg 53%
    16:00 +37°C° 0,3 mm 4 m/S 745 mmHg 58%
    17:00 +36°C° 0,3 mm 4 m/S 745 mmHg 62%
    18:00 +34°C° 0,2 mm 3 m/S 745 mmHg 67%
    19:00 +32°C° 0,2 mm 2 m/S 745 mmHg 72%
    20:00 +30°C° 0,2 mm 2 m/S 745 mmHg 77%
    21:00 +30°C° 0 mm 2 m/S 745 mmHg 78%
    22:00 +30°C° 0 mm 2 m/S 746 mmHg 80%
    23:00 +29°C° 0 mm 1 m/S 746 mmHg 81%

    Morgen, 23 Juli, Montag

    Zeit Temperatur Niederschläge Wind Luftdruck Luftfeuchtigkeit
    00:00 +29°C° 0 mm 1 m/S 746 mmHg 82%
    01:00 +29°C° 0 mm 1 m/S 746 mmHg 83%
    02:00 +28°C° 0 mm 1 m/S 745 mmHg 84%
    03:00 +28°C° 0 mm 1 m/S 745 mmHg 84%
    04:00 +28°C° 0 mm 1 m/S 745 mmHg 84%
    05:00 +28°C° 0 mm 1 m/S 745 mmHg 85%
    06:00 +29°C° 0 mm 1 m/S 745 mmHg 80%
    07:00 +30°C° 0 mm 1 m/S 746 mmHg 76%
    08:00 +31°C° 0 mm 1 m/S 746 mmHg 72%
    09:00 +32°C° 0 mm 2 m/S 746 mmHg 67%
    10:00 +35°C° 0 mm 2 m/S 746 mmHg 62%
    11:00 +36°C° 0 mm 3 m/S 746 mmHg 57%
    12:00 +36°C° 0,3 mm 3 m/S 746 mmHg 57%
    13:00 +36°C° 0,3 mm 3 m/S 745 mmHg 58%
    14:00 +37°C° 0,3 mm 4 m/S 745 mmHg 58%
    15:00 +36°C° 0,2 mm 4 m/S 745 mmHg 61%
    16:00 +35°C° 0,2 mm 4 m/S 744 mmHg 63%
    17:00 +35°C° 0,2 mm 4 m/S 744 mmHg 65%
    18:00 +34°C° 0 mm 3 m/S 745 mmHg 71%
    19:00 +31°C° 0 mm 3 m/S 745 mmHg 77%
    20:00 +30°C° 0 mm 2 m/S 746 mmHg 82%
    21:00 +29°C° 0 mm 2 m/S 746 mmHg 84%
    22:00 +29°C° 0 mm 1 m/S 746 mmHg 86%
    23:00 +29°C° 0 mm 1 m/S 747 mmHg 88%

    übermorgen, 24 Juli, Dienstag

    Zeit Temperatur Niederschläge Wind Luftdruck Luftfeuchtigkeit
    00:00 +29°C° 0,1 mm 1 m/S 747 mmHg 89%
    01:00 +28°C° 0,1 mm 1 m/S 746 mmHg 90%
    02:00 +28°C° 0,1 mm 1 m/S 746 mmHg 91%
    03:00 +28°C° 0,1 mm 1 m/S 746 mmHg 91%
    04:00 +28°C° 0,1 mm 1 m/S 746 mmHg 91%
    05:00 +28°C° 0,1 mm 1 m/S 746 mmHg 91%
    06:00 +29°C° 0,4 mm 1 m/S 746 mmHg 87%
    07:00 +30°C° 0,4 mm 1 m/S 746 mmHg 82%
    08:00 +31°C° 0,4 mm 1 m/S 746 mmHg 78%
    09:00 +31°C° 0,6 mm 2 m/S 747 mmHg 74%
    10:00 +32°C° 0,6 mm 2 m/S 747 mmHg 70%
    11:00 +34°C° 0,6 mm 3 m/S 747 mmHg 67%
    12:00 +34°C° 0,4 mm 3 m/S 747 mmHg 67%
    13:00 +35°C° 0,4 mm 3 m/S 746 mmHg 66%
    14:00 +35°C° 0,4 mm 4 m/S 746 mmHg 66%
    15:00 +34°C° 0,1 mm 3 m/S 746 mmHg 68%
    16:00 +34°C° 0,1 mm 3 m/S 746 mmHg 70%
    17:00 +33°C° 0,1 mm 3 m/S 746 mmHg 72%
    18:00 +31°C° 0 mm 2 m/S 746 mmHg 76%
    19:00 +31°C° 0 mm 2 m/S 746 mmHg 80%
    20:00 +30°C° 0 mm 1 m/S 747 mmHg 84%
    21:00 +29°C° 0 mm 1 m/S 747 mmHg 85%
    22:00 +29°C° 0 mm 1 m/S 747 mmHg 87%
    23:00 +29°C° 0 mm 1 m/S 748 mmHg 88%

    25 Juli, Mittwoch

    Zeit Temperatur Niederschläge Wind Luftdruck Luftfeuchtigkeit
    00:00 +29°C° 0 mm 1 m/S 747 mmHg 89%
    01:00 +29°C° 0 mm 1 m/S 747 mmHg 89%
    02:00 +28°C° 0 mm 1 m/S 747 mmHg 90%
    03:00 +28°C° 0 mm 1 m/S 747 mmHg 91%
    04:00 +28°C° 0 mm 1 m/S 747 mmHg 91%
    05:00 +28°C° 0 mm 1 m/S 747 mmHg 92%
    06:00 +29°C° 0 mm 1 m/S 747 mmHg 88%
    07:00 +29°C° 0 mm 1 m/S 747 mmHg 83%
    08:00 +30°C° 0 mm 1 m/S 748 mmHg 79%
    09:00 +31°C° 0 mm 1 m/S 748 mmHg 73%
    10:00 +34°C° 0 mm 2 m/S 748 mmHg 67%
    11:00 +35°C° 0 mm 2 m/S 748 mmHg 61%
    12:00 +35°C° 0,2 mm 2 m/S 748 mmHg 60%
    13:00 +36°C° 0,2 mm 3 m/S 747 mmHg 59%
    14:00 +36°C° 0,2 mm 3 m/S 746 mmHg 58%
    15:00 +36°C° 0,2 mm 3 m/S 746 mmHg 59%
    16:00 +35°C° 0,2 mm 3 m/S 746 mmHg 61%
    17:00 +35°C° 0,2 mm 3 m/S 746 mmHg 62%
    18:00 +34°C° 0 mm 2 m/S 747 mmHg 68%
    19:00 +31°C° 0 mm 2 m/S 747 mmHg 73%
    20:00 +30°C° 0 mm 2 m/S 747 mmHg 79%
    21:00 +30°C° 0 mm 1 m/S 748 mmHg 81%
    22:00 +29°C° 0 mm 1 m/S 748 mmHg 83%
    23:00 +29°C° 0 mm 1 m/S 749 mmHg 84%

    26 Juli, Donnerstag

    Zeit Temperatur Niederschläge Wind Luftdruck Luftfeuchtigkeit
    00:00 +28°C° 0 mm 1 m/S 748 mmHg 86%
    01:00 +26°C° 0 mm 0 m/S 748 mmHg 87%
    02:00 +26°C° 0 mm 0 m/S 747 mmHg 88%
    03:00 +26°C° 0 mm 0 m/S 747 mmHg 89%
    04:00 +26°C° 0 mm 0 m/S 747 mmHg 90%
    05:00 +25°C° 0 mm 0 m/S 747 mmHg 90%
    06:00 +26°C° 0 mm 0 m/S 748 mmHg 86%
    07:00 +28°C° 0 mm 0 m/S 748 mmHg 81%
    08:00 +29°C° 0 mm 0 m/S 749 mmHg 77%
    09:00 +32°C° 0,1 mm 1 m/S 749 mmHg 71%
    10:00 +33°C° 0,1 mm 1 m/S 749 mmHg 66%
    11:00 +35°C° 0,1 mm 1 m/S 749 mmHg 60%
    12:00 +35°C° 1,6 mm 1 m/S 748 mmHg 61%
    13:00 +36°C° 1,6 mm 2 m/S 748 mmHg 62%
    14:00 +36°C° 1,6 mm 2 m/S 747 mmHg 63%
    15:00 +35°C° 0,7 mm 2 m/S 747 mmHg 65%
    16:00 +35°C° 0,7 mm 2 m/S 747 mmHg 67%
    17:00 +34°C° 0,7 mm 2 m/S 747 mmHg 69%
    18:00 +32°C° 0 mm 2 m/S 747 mmHg 73%
    19:00 +31°C° 0 mm 2 m/S 747 mmHg 77%
    20:00 +30°C° 0 mm 1 m/S 748 mmHg 82%
    21:00 +30°C° 0 mm 1 m/S 748 mmHg 83%
    22:00 +29°C° 0 mm 1 m/S 748 mmHg 84%
    23:00 +29°C° 0 mm 1 m/S 748 mmHg 86%

    27 Juli, Freitag

    Zeit Temperatur Niederschläge Wind Luftdruck Luftfeuchtigkeit
    00:00 +29°C° 0,2 mm 1 m/S 748 mmHg 87%
    01:00 +26°C° 0,2 mm 0 m/S 748 mmHg 88%
    02:00 +26°C° 0,2 mm 0 m/S 747 mmHg 89%
    03:00 +26°C° 0,1 mm 0 m/S 748 mmHg 89%
    04:00 +26°C° 0,1 mm 0 m/S 748 mmHg 90%
    05:00 +26°C° 0,1 mm 0 m/S 748 mmHg 90%
    06:00 +27°C° 0 mm 0 m/S 748 mmHg 85%
    07:00 +28°C° 0 mm 0 m/S 749 mmHg 80%
    08:00 +29°C° 0 mm 0 m/S 749 mmHg 76%
    09:00 +32°C° 0,1 mm 1 m/S 749 mmHg 69%
    10:00 +34°C° 0,1 mm 1 m/S 749 mmHg 62%
    11:00 +36°C° 0,1 mm 2 m/S 749 mmHg 55%
    12:00 +36°C° 0,1 mm 2 m/S 748 mmHg 55%
    13:00 +37°C° 0,1 mm 2 m/S 748 mmHg 54%
    14:00 +37°C° 0,1 mm 3 m/S 747 mmHg 54%
    15:00 +36°C° 0,5 mm 3 m/S 747 mmHg 58%
    16:00 +36°C° 0,5 mm 3 m/S 747 mmHg 61%
    17:00 +35°C° 0,5 mm 3 m/S 747 mmHg 65%
    18:00 +34°C° 0,1 mm 2 m/S 747 mmHg 69%
    19:00 +31°C° 0,1 mm 2 m/S 747 mmHg 74%
    20:00 +30°C° 0,1 mm 1 m/S 748 mmHg 79%
    21:00 +30°C° 0 mm 1 m/S 748 mmHg 81%
    22:00 +29°C° 0 mm 1 m/S 748 mmHg 82%
    23:00 +29°C° 0 mm 1 m/S 749 mmHg 84%
    Mehr zeigen